[Iaude] MPEC E46: 2024 ED1 [a=2.28,e=0.52,i=3.3,H=24.4]
    mpec at cfa.harvard.edu 
    mpec at cfa.harvard.edu
       
    Mon Mar  4 23:39:34 EST 2024
    
    
  
M.P.E.C. 2024-E46                                 Issued 2024 March 5, 04:36 UT
     The Minor Planet Electronic Circulars contain information on unusual
         minor planets, routine data on comets and natural satellites,
         and occasional editorial announcements.  They are published
    on behalf of Division F of the International Astronomical Union by the
          Minor Planet Center, Smithsonian Astrophysical Observatory,
                          Cambridge, MA 02138, U.S.A.
			  
             Prepared using the Tamkin Foundation Computer Network
                              MPC at CFA.HARVARD.EDU
            URL https://www.minorplanetcenter.net/    ISSN 1523-6714
                                    2024 ED1                                    
Observations:
     K24E01D* C2024 03 02.31057210 09 04.504+23 24 14.13         21.74wXEE046F51
     K24E01D  C2024 03 02.32285410 09 05.514+23 24 00.40         21.89wXEE046F51
     K24E01D  C2024 03 02.33512510 09 06.566+23 23 46.72         21.28wXEE046F51
     K24E01D  C2024 03 02.45732110 09 16.487+23 21 23.03         21.37GVEE046F52
     K24E01D  C2024 03 02.45796910 09 16.533+23 21 22.51         21.91GVEE046F52
     K24E01D KC2024 03 03.33231910 10 50.516+23 03 13.07         21.29GVEE046I52
     K24E01D KC2024 03 03.33619010 10 50.848+23 03 07.88         21.03GVEE046I52
     K24E01D KC2024 03 03.34005510 10 51.244+23 03 03.13         21.09GVEE046I52
     K24E01D KC2024 03 03.34392510 10 51.539+23 02 57.98         21.19GVEE046I52
     K24E01D KC2024 03 05.15378210 14 24.41 +22 21 41.5          20.7 GXEE046858
     K24E01D KC2024 03 05.16360110 14 25.43 +22 21 28.1          21.9 GXEE046858
     K24E01D KC2024 03 05.17407810 14 26.50 +22 21 13.6          20.9 GXEE046858
Observer details:
858 Tebbutt Observatory, Edgewood.  Observer F. B. Zoltowski.  0.51-m f/8.1
    Schmidt-Cassegrain + CCD.
F51 Pan-STARRS 1, Haleakala.  Observers J. Herman, T. Lowe, P. Minguez, A.
    Schultz, I. Smith.  Measurers K. Chambers, T. de Boer, J. Fairlamb, H.
    Gao, M. Huber, C.-C. Lin, E. Magnier, Y. Ramanjooloo, R. Wainscoat, R.
    Weryk.  1.8-m Ritchey-Chretien + CCD.
F52 Pan-STARRS 2, Haleakala.  Observers J. Herman, T. Lowe, P. Minguez, A.
    Schultz, I. Smith.  Measurers K. Chambers, T. de Boer, J. Fairlamb, H.
    Gao, M. Huber, C.-C. Lin, E. Magnier, Y. Ramanjooloo, R. Wainscoat, R.
    Weryk.  1.8-m Ritchey-Chretien + CCD.
I52 Steward Observatory, Mt. Lemmon Station.  Observers T. Beuden, J. K.
    Hogan.  Measurers T. Beuden, V. F. Carvajal, D. Fay, J. B. Fazekas, D. C.
    Fuls, A. R. Gibbs, A. D. Grauer, H. Groeller, J. K. Hogan, R. A. Kowalski,
    S. M. Larson, G. J. Leonard, D. Rankin, R. L. Seaman, F. C. Shelly, K. W.
    Wierzchos.  1.0-m prime focus + CCD.
Orbital elements:
2024 ED1                                                 Earth MOID = 0.0968 AU
Epoch 2024 Mar. 31.0 TT = JDT 2460400.5                 MPC                     
M   0.45034              (2000.0)            P               Q                  
n   0.28617597     Peri.  180.61768     -0.99107666     +0.13310046             
a   2.2805903      Node     7.04322     -0.12204214     -0.88449903             
e   0.5197230      Incl.    3.34939     -0.05359823     -0.44715293             
P   3.44           H   24.44          G   0.15           U   9                  
Residuals in seconds of arc
240302 F51  0.1+  0.1+    240302 F52  0.1-  0.1+    240303 I52  0.2-  0.1+
240302 F51  0.2-  0.0     240303 I52  0.0   0.0     240305 858  0.0   0.3-
240302 F51  0.2+  0.0     240303 I52  0.2-  0.1-    240305 858  0.0   0.1-
240302 F52  0.0   0.2-    240303 I52  0.5+  0.2+    240305 858  0.2-  0.0
Ephemeris:
2024 ED1                 a,e,i = 2.28, 0.52, 3                   q = 1.0953
Date    TT    R. A. (2000) Decl.     Delta      r    Elong.  Phase     V
2024 02 04    09 43 46.5 +26 10 29   0.2827  1.2628   167.1    10.0    22.9
...
2024 02 19    09 53 36.4 +25 51 11   0.2053  1.1882   165.5    12.0    22.1
...
2024 02 27    10 02 23.3 +24 35 43   0.1728  1.1558   162.1    15.2    21.8
...
2024 03 04    10 12 06.3 +22 48 52   0.1518  1.1355   160.1    17.3    21.5
2024 03 05    10 14 03.4 +22 25 43   0.1486  1.1325   159.8    17.6    21.5
2024 03 06    10 16 07.0 +22 00 50   0.1455  1.1296   159.6    17.8    21.4
...
2024 03 12    10 30 57.9 +18 50 28   0.1284  1.1145   159.0    18.6    21.2
...
2024 03 20    10 58 26.1 +12 25 17   0.1107  1.1010   160.8    17.3    20.8
...
2024 04 04    12 11 55.7 -05 55 09   0.09860 1.0973   169.8     9.3    20.2
A. U. Tomatic                (C) Copyright 2024 MPC           M.P.E.C. 2024-E46
    
    
More information about the Iaude
mailing list